Year,Month,Day,Hour,Minute,Value (Times are PST for temperature in C)
2017,05,27,00,00,16.10
2017,05,27,00,01,16.20
2017,05,27,00,02,16.20
2017,05,27,00,03,16.20
2017,05,27,00,04,16.20
2017,05,27,00,05,16.20
2017,05,27,00,06,16.20
2017,05,27,00,07,16.20
2017,05,27,00,08,16.20
2017,05,27,00,09,16.20
2017,05,27,00,10,16.20
2017,05,27,00,11,16.20
2017,05,27,00,12,16.20
2017,05,27,00,13,16.10
2017,05,27,00,14,16.10
2017,05,27,00,15,16.10
2017,05,27,00,16,16.10
2017,05,27,00,17,16.10
2017,05,27,00,18,16.10
2017,05,27,00,19,16.10
2017,05,27,00,20,16.00
2017,05,27,00,21,15.90
2017,05,27,00,22,15.90
2017,05,27,00,23,15.90
2017,05,27,00,24,15.90
2017,05,27,00,25,15.80
2017,05,27,00,26,15.80
2017,05,27,00,27,15.80
2017,05,27,00,28,15.80
2017,05,27,00,29,15.80
2017,05,27,00,30,15.80
2017,05,27,00,31,15.80
2017,05,27,00,32,15.70
2017,05,27,00,33,15.70
2017,05,27,00,34,15.60
2017,05,27,00,35,15.60
2017,05,27,00,36,15.60
2017,05,27,00,37,15.50
2017,05,27,00,38,15.50
2017,05,27,00,39,15.50
2017,05,27,00,40,15.40
2017,05,27,00,41,15.40
2017,05,27,00,42,15.40
2017,05,27,00,43,15.40
2017,05,27,00,44,15.30
2017,05,27,00,45,15.30
2017,05,27,00,46,15.30
2017,05,27,00,47,15.30
2017,05,27,00,48,15.30
2017,05,27,00,49,15.20
2017,05,27,00,50,15.20
2017,05,27,00,51,15.20
2017,05,27,00,52,15.20
2017,05,27,00,53,15.20
2017,05,27,00,54,15.20
2017,05,27,00,55,15.20
2017,05,27,00,56,15.20
2017,05,27,00,57,15.20
2017,05,27,00,58,15.20
2017,05,27,00,59,15.20
2017,05,27,01,00,15.20
2017,05,27,01,01,15.10
2017,05,27,01,02,15.10
2017,05,27,01,03,15.10
2017,05,27,01,04,15.10
2017,05,27,01,05,15.10
2017,05,27,01,06,15.10
2017,05,27,01,07,15.00
2017,05,27,01,08,15.00
2017,05,27,01,09,15.00
2017,05,27,01,10,14.90
2017,05,27,01,11,14.90
2017,05,27,01,12,14.90
2017,05,27,01,13,14.90
2017,05,27,01,14,14.90
2017,05,27,01,15,14.90
2017,05,27,01,16,14.90
2017,05,27,01,17,14.90
2017,05,27,01,18,14.90
2017,05,27,01,19,14.80
2017,05,27,01,20,14.80
2017,05,27,01,21,14.80
2017,05,27,01,22,14.80
2017,05,27,01,23,14.80
2017,05,27,01,24,14.80
2017,05,27,01,25,14.70
2017,05,27,01,26,14.70
2017,05,27,01,27,14.70
2017,05,27,01,28,14.60
2017,05,27,01,29,14.60
2017,05,27,01,30,14.50
2017,05,27,01,31,14.50
2017,05,27,01,32,14.50
2017,05,27,01,33,14.40
2017,05,27,01,34,14.40
2017,05,27,01,35,14.40
2017,05,27,01,36,14.30
2017,05,27,01,37,14.30
2017,05,27,01,38,14.20
2017,05,27,01,39,14.20
2017,05,27,01,40,14.20
2017,05,27,01,41,14.20
2017,05,27,01,42,14.20
2017,05,27,01,43,14.20
2017,05,27,01,44,14.10
2017,05,27,01,45,14.10
2017,05,27,01,46,14.10
2017,05,27,01,47,14.00
2017,05,27,01,48,14.00
2017,05,27,01,49,14.00
2017,05,27,01,50,13.90
2017,05,27,01,51,13.90
2017,05,27,01,52,13.90
2017,05,27,01,53,13.90
2017,05,27,01,54,13.80
2017,05,27,01,55,13.80
2017,05,27,01,56,13.80
2017,05,27,01,57,13.70
2017,05,27,01,58,13.70
2017,05,27,01,59,13.70
2017,05,27,02,00,13.70
2017,05,27,02,01,13.70
2017,05,27,02,02,13.60
2017,05,27,02,03,13.60
2017,05,27,02,04,13.60
2017,05,27,02,05,13.60
2017,05,27,02,06,13.60
2017,05,27,02,07,13.50
2017,05,27,02,08,13.50
2017,05,27,02,09,13.50
2017,05,27,02,10,13.50
2017,05,27,02,11,13.40
2017,05,27,02,12,13.40
2017,05,27,02,13,13.40
2017,05,27,02,14,13.40
2017,05,27,02,15,13.30
2017,05,27,02,16,13.30
2017,05,27,02,17,13.30
2017,05,27,02,18,13.30
2017,05,27,02,19,13.30
2017,05,27,02,20,13.30
2017,05,27,02,21,13.30
2017,05,27,02,22,13.30
2017,05,27,02,23,13.20
2017,05,27,02,24,13.20
2017,05,27,02,25,13.20
2017,05,27,02,26,13.10
2017,05,27,02,27,13.10
2017,05,27,02,28,13.10
2017,05,27,02,29,13.10
2017,05,27,02,30,13.00
2017,05,27,02,31,13.00
2017,05,27,02,32,13.00
2017,05,27,02,33,13.00
2017,05,27,02,34,12.90
2017,05,27,02,35,12.90
2017,05,27,02,36,12.90
2017,05,27,02,37,12.80
2017,05,27,02,38,12.80
2017,05,27,02,39,12.80
2017,05,27,02,40,12.80
2017,05,27,02,41,12.80
2017,05,27,02,42,12.80
2017,05,27,02,43,12.70
2017,05,27,02,44,12.70
2017,05,27,02,45,12.70
2017,05,27,02,46,12.70
2017,05,27,02,47,12.70
2017,05,27,02,48,12.60
2017,05,27,02,49,12.60
2017,05,27,02,50,12.60
2017,05,27,02,51,12.60
2017,05,27,02,52,12.50
2017,05,27,02,53,12.50
2017,05,27,02,54,12.50
2017,05,27,02,55,12.40
2017,05,27,02,56,12.40
2017,05,27,02,57,12.40
2017,05,27,02,58,12.30
2017,05,27,02,59,12.30
2017,05,27,03,00,12.30
2017,05,27,03,01,12.30
2017,05,27,03,02,12.30
2017,05,27,03,03,12.30
2017,05,27,03,04,12.30
2017,05,27,03,05,12.30
2017,05,27,03,06,12.20
2017,05,27,03,07,12.20
2017,05,27,03,08,12.20
2017,05,27,03,09,12.20
2017,05,27,03,10,12.20
2017,05,27,03,11,12.20
2017,05,27,03,12,12.20
2017,05,27,03,13,12.10
2017,05,27,03,14,12.10
2017,05,27,03,15,12.10
2017,05,27,03,16,12.10
2017,05,27,03,17,12.10
2017,05,27,03,18,12.10
2017,05,27,03,19,12.10
2017,05,27,03,20,12.10
2017,05,27,03,21,12.10
2017,05,27,03,22,12.10
2017,05,27,03,23,12.10
2017,05,27,03,24,12.10
2017,05,27,03,25,12.10
2017,05,27,03,26,12.10
2017,05,27,03,27,12.10
2017,05,27,03,28,12.10
2017,05,27,03,29,12.10
2017,05,27,03,30,12.10
2017,05,27,03,31,12.10
2017,05,27,03,32,12.10
2017,05,27,03,33,12.00
2017,05,27,03,34,12.00
2017,05,27,03,35,12.00
2017,05,27,03,36,12.00
2017,05,27,03,37,11.90
2017,05,27,03,38,11.90
2017,05,27,03,39,11.90
2017,05,27,03,40,11.90
2017,05,27,03,41,11.90
2017,05,27,03,42,11.90
2017,05,27,03,43,11.90
2017,05,27,03,44,11.90
2017,05,27,03,45,11.90
2017,05,27,03,46,11.90
2017,05,27,03,47,11.90
2017,05,27,03,48,11.90
2017,05,27,03,49,11.90
2017,05,27,03,50,11.80
2017,05,27,03,51,11.80
2017,05,27,03,52,11.80
2017,05,27,03,53,11.80
2017,05,27,03,54,11.80
2017,05,27,03,55,11.90
2017,05,27,03,56,11.90
2017,05,27,03,57,11.80
2017,05,27,03,58,11.80
2017,05,27,03,59,11.80
2017,05,27,04,00,11.80
2017,05,27,04,01,11.80
2017,05,27,04,02,11.80
2017,05,27,04,03,11.80
2017,05,27,04,04,11.80
2017,05,27,04,05,11.80
2017,05,27,04,06,11.80
2017,05,27,04,07,11.80
2017,05,27,04,08,11.70
2017,05,27,04,09,11.70
2017,05,27,04,10,11.70
2017,05,27,04,11,11.70
2017,05,27,04,12,11.70
2017,05,27,04,13,11.70
2017,05,27,04,14,11.60
2017,05,27,04,15,11.60
2017,05,27,04,16,11.60
2017,05,27,04,17,11.60
2017,05,27,04,18,11.60
2017,05,27,04,19,11.60
2017,05,27,04,20,11.60
2017,05,27,04,21,11.60
2017,05,27,04,22,11.60
2017,05,27,04,23,11.60
2017,05,27,04,24,11.50
2017,05,27,04,25,11.40
2017,05,27,04,26,11.50
2017,05,27,04,27,11.60
2017,05,27,04,28,11.60
2017,05,27,04,29,11.60
2017,05,27,04,30,11.60
2017,05,27,04,31,11.50
2017,05,27,04,32,11.50
2017,05,27,04,33,11.60
2017,05,27,04,34,11.50
2017,05,27,04,35,11.40
2017,05,27,04,36,11.40
2017,05,27,04,37,11.40
2017,05,27,04,38,11.40
2017,05,27,04,39,11.40
2017,05,27,04,40,11.40
2017,05,27,04,41,11.40
2017,05,27,04,42,11.30
2017,05,27,04,43,11.30
2017,05,27,04,44,11.30
2017,05,27,04,45,11.30
2017,05,27,04,46,11.30
2017,05,27,04,47,11.20
2017,05,27,04,48,11.20
2017,05,27,04,49,11.20
2017,05,27,04,50,11.20
2017,05,27,04,51,11.10
2017,05,27,04,52,11.10
2017,05,27,04,53,11.10
2017,05,27,04,54,11.10
2017,05,27,04,55,11.10
2017,05,27,04,56,11.10
2017,05,27,04,57,11.10
2017,05,27,04,58,11.10
2017,05,27,04,59,11.10
2017,05,27,05,00,11.10
2017,05,27,05,01,10.90
2017,05,27,05,02,10.90
2017,05,27,05,03,10.90
2017,05,27,05,04,10.90
2017,05,27,05,05,10.90
2017,05,27,05,06,10.90
2017,05,27,05,07,10.90
2017,05,27,05,08,10.90
2017,05,27,05,09,10.90
2017,05,27,05,10,10.90
2017,05,27,05,11,10.90
2017,05,27,05,12,10.80
2017,05,27,05,13,10.80
2017,05,27,05,14,10.80
2017,05,27,05,15,10.70
2017,05,27,05,16,10.70
2017,05,27,05,17,10.70
2017,05,27,05,18,10.70
2017,05,27,05,19,10.60
2017,05,27,05,20,10.60
2017,05,27,05,21,10.60
2017,05,27,05,22,10.60
2017,05,27,05,23,10.60
2017,05,27,05,24,10.60
2017,05,27,05,25,10.50
2017,05,27,05,26,10.40
2017,05,27,05,27,10.40
2017,05,27,05,28,10.40
2017,05,27,05,29,10.40
2017,05,27,05,30,10.40
2017,05,27,05,31,10.40
2017,05,27,05,32,10.40
2017,05,27,05,33,10.40
2017,05,27,05,34,10.40
2017,05,27,05,35,10.40
2017,05,27,05,36,10.40
2017,05,27,05,37,10.40
2017,05,27,05,38,10.40
2017,05,27,05,39,10.40
2017,05,27,05,40,10.40
2017,05,27,05,41,10.40
2017,05,27,05,42,10.40
2017,05,27,05,43,10.40
2017,05,27,05,44,10.40
2017,05,27,05,45,10.40
2017,05,27,05,46,10.40
2017,05,27,05,47,10.40
2017,05,27,05,48,10.40
2017,05,27,05,49,10.40
2017,05,27,05,50,10.40
2017,05,27,05,51,10.40
2017,05,27,05,52,10.40
2017,05,27,05,53,10.40
2017,05,27,05,54,10.40
2017,05,27,05,55,10.40
2017,05,27,05,56,10.40
2017,05,27,05,57,10.40
2017,05,27,05,58,10.40
2017,05,27,05,59,10.40
2017,05,27,06,00,10.40
2017,05,27,06,01,10.40
2017,05,27,06,02,10.60
2017,05,27,06,03,10.60
2017,05,27,06,04,10.60
2017,05,27,06,05,10.60
2017,05,27,06,06,10.60
2017,05,27,06,07,10.60
2017,05,27,06,08,10.60
2017,05,27,06,09,10.60
2017,05,27,06,10,10.60
2017,05,27,06,11,10.70
2017,05,27,06,12,10.70
2017,05,27,06,13,10.70
2017,05,27,06,14,10.70
2017,05,27,06,15,10.80
2017,05,27,06,16,10.80
2017,05,27,06,17,10.80
2017,05,27,06,18,10.90
2017,05,27,06,19,10.90
2017,05,27,06,20,10.90
2017,05,27,06,21,10.90
2017,05,27,06,22,11.00
2017,05,27,06,23,11.10
2017,05,27,06,24,11.10
2017,05,27,06,25,11.10
2017,05,27,06,26,11.10
2017,05,27,06,27,11.20
2017,05,27,06,28,11.20
2017,05,27,06,29,11.30
2017,05,27,06,30,11.30
2017,05,27,06,31,11.40
2017,05,27,06,32,11.40
2017,05,27,06,33,11.50
2017,05,27,06,34,11.60
2017,05,27,06,35,11.60
2017,05,27,06,36,11.60
2017,05,27,06,37,11.70
2017,05,27,06,38,11.70
2017,05,27,06,39,11.80
2017,05,27,06,40,11.80
2017,05,27,06,41,11.80
2017,05,27,06,42,11.80
2017,05,27,06,43,11.90
2017,05,27,06,44,11.90
2017,05,27,06,45,11.90
2017,05,27,06,46,12.00
2017,05,27,06,47,12.00
2017,05,27,06,48,12.00
2017,05,27,06,49,12.10
2017,05,27,06,50,12.10
2017,05,27,06,51,12.20
2017,05,27,06,52,12.30
2017,05,27,06,53,12.30
2017,05,27,06,54,12.30
2017,05,27,06,55,12.40
2017,05,27,06,56,12.40
2017,05,27,06,57,12.50
2017,05,27,06,58,12.60
2017,05,27,06,59,12.70
2017,05,27,07,00,12.80
2017,05,27,07,01,13.00
2017,05,27,07,02,13.10
2017,05,27,07,03,13.30
2017,05,27,07,04,13.40
2017,05,27,07,05,13.50
2017,05,27,07,06,13.60
2017,05,27,07,07,13.60
2017,05,27,07,08,13.70
2017,05,27,07,09,13.70
2017,05,27,07,10,13.90
2017,05,27,07,11,14.00
2017,05,27,07,12,14.10
2017,05,27,07,13,14.20
2017,05,27,07,14,14.40
2017,05,27,07,15,14.50
2017,05,27,07,16,14.60
2017,05,27,07,17,14.80
2017,05,27,07,18,14.80
2017,05,27,07,19,14.90
2017,05,27,07,20,14.90
2017,05,27,07,21,15.00
2017,05,27,07,22,15.10
2017,05,27,07,23,15.20
2017,05,27,07,24,15.20
2017,05,27,07,25,15.20
2017,05,27,07,26,15.30
2017,05,27,07,27,15.30
2017,05,27,07,28,15.30
2017,05,27,07,29,15.30
2017,05,27,07,30,15.30
2017,05,27,07,31,15.30
2017,05,27,07,32,15.30
2017,05,27,07,33,15.30
2017,05,27,07,34,15.40
2017,05,27,07,35,15.50
2017,05,27,07,36,15.60
2017,05,27,07,37,15.60
2017,05,27,07,38,15.70
2017,05,27,07,39,15.70
2017,05,27,07,40,15.80
2017,05,27,07,41,15.80
2017,05,27,07,42,15.90
2017,05,27,07,43,16.00
2017,05,27,07,44,16.10
2017,05,27,07,45,16.10
2017,05,27,07,46,16.10
2017,05,27,07,47,16.20
2017,05,27,07,48,16.20
2017,05,27,07,49,16.30
2017,05,27,07,50,16.40
2017,05,27,07,51,16.40
2017,05,27,07,52,16.50
2017,05,27,07,53,16.60
2017,05,27,07,54,16.70
2017,05,27,07,55,16.80
2017,05,27,07,56,16.80
2017,05,27,07,57,16.90
2017,05,27,07,58,17.00
2017,05,27,07,59,17.10
2017,05,27,08,00,17.20
2017,05,27,08,01,17.30
2017,05,27,08,02,17.30
2017,05,27,08,03,17.40
2017,05,27,08,04,17.50
2017,05,27,08,05,17.50
2017,05,27,08,06,17.70
2017,05,27,08,07,17.70
2017,05,27,08,08,17.90
2017,05,27,08,09,17.90
2017,05,27,08,10,18.00
2017,05,27,08,11,18.10
2017,05,27,08,12,18.20
2017,05,27,08,13,18.20
2017,05,27,08,14,18.10
2017,05,27,08,15,18.10
2017,05,27,08,16,18.10
2017,05,27,08,17,18.20
2017,05,27,08,18,18.20
2017,05,27,08,19,18.20
2017,05,27,08,20,18.20
2017,05,27,08,21,18.20
2017,05,27,08,22,18.30
2017,05,27,08,23,18.40
2017,05,27,08,24,18.50
2017,05,27,08,25,18.60
2017,05,27,08,26,18.60
2017,05,27,08,27,18.70
2017,05,27,08,28,18.60
2017,05,27,08,29,18.60
2017,05,27,08,30,18.60
2017,05,27,08,31,18.60
2017,05,27,08,32,18.60
2017,05,27,08,33,18.60
2017,05,27,08,34,18.60
2017,05,27,08,35,18.60
2017,05,27,08,36,18.70
2017,05,27,08,37,18.70
2017,05,27,08,38,18.80
2017,05,27,08,39,18.70
2017,05,27,08,40,18.70
2017,05,27,08,41,18.70
2017,05,27,08,42,18.80
2017,05,27,08,43,18.80
2017,05,27,08,44,18.80
2017,05,27,08,45,18.80
2017,05,27,08,46,18.80
2017,05,27,08,47,18.90
2017,05,27,08,48,18.90
2017,05,27,08,49,18.90
2017,05,27,08,50,19.00
2017,05,27,08,51,19.10
2017,05,27,08,52,19.10
2017,05,27,08,53,19.10
2017,05,27,08,54,19.10
2017,05,27,08,55,19.10
2017,05,27,08,56,19.10
2017,05,27,08,57,19.20
2017,05,27,08,58,19.30
2017,05,27,08,59,19.30
2017,05,27,09,00,19.40
2017,05,27,09,01,19.60
2017,05,27,09,02,19.60
2017,05,27,09,03,19.70
2017,05,27,09,04,19.70
2017,05,27,09,05,19.70
2017,05,27,09,06,19.60
2017,05,27,09,07,19.60
2017,05,27,09,08,19.60
2017,05,27,09,09,19.70
2017,05,27,09,10,19.70
2017,05,27,09,11,19.80
2017,05,27,09,12,19.80
2017,05,27,09,13,19.80
2017,05,27,09,14,19.80
2017,05,27,09,15,19.80
2017,05,27,09,16,19.90
2017,05,27,09,17,19.90
2017,05,27,09,18,20.00
2017,05,27,09,19,20.10
2017,05,27,09,20,20.10
2017,05,27,09,21,20.10
2017,05,27,09,22,20.20
2017,05,27,09,23,20.10
2017,05,27,09,24,20.00
2017,05,27,09,25,19.90
2017,05,27,09,26,19.90
2017,05,27,09,27,19.90
2017,05,27,09,28,19.80
2017,05,27,09,29,19.70
2017,05,27,09,30,19.60
2017,05,27,09,31,19.50
2017,05,27,09,32,19.40
2017,05,27,09,33,19.30
2017,05,27,09,34,19.10
2017,05,27,09,35,19.00
2017,05,27,09,36,18.90
2017,05,27,09,37,18.80
2017,05,27,09,38,18.80
2017,05,27,09,39,18.70
2017,05,27,09,40,18.70
2017,05,27,09,41,18.60
2017,05,27,09,42,18.60
2017,05,27,09,43,18.50
2017,05,27,09,44,18.40
2017,05,27,09,45,18.30
2017,05,27,09,46,18.20
2017,05,27,09,47,18.10
2017,05,27,09,48,18.10
2017,05,27,09,49,18.10
2017,05,27,09,50,18.20
2017,05,27,09,51,18.20
2017,05,27,09,52,18.20
2017,05,27,09,53,18.20
2017,05,27,09,54,18.20
2017,05,27,09,55,18.10
2017,05,27,09,56,18.10
2017,05,27,09,57,18.10
2017,05,27,09,58,18.00
2017,05,27,09,59,17.90
2017,05,27,10,00,17.90
2017,05,27,10,01,17.90
2017,05,27,10,02,17.90
2017,05,27,10,03,18.00
2017,05,27,10,04,18.10
2017,05,27,10,05,18.10
2017,05,27,10,06,18.00
2017,05,27,10,07,17.90
2017,05,27,10,08,17.90
2017,05,27,10,09,17.80
2017,05,27,10,10,17.80
2017,05,27,10,11,17.70
2017,05,27,10,12,17.60
2017,05,27,10,13,17.60
2017,05,27,10,14,17.50
2017,05,27,10,15,17.50
2017,05,27,10,16,17.70
2017,05,27,10,17,17.70
2017,05,27,10,18,17.80
2017,05,27,10,19,17.90
2017,05,27,10,20,17.90
2017,05,27,10,21,17.90
2017,05,27,10,22,18.00
2017,05,27,10,23,18.10
2017,05,27,10,24,18.20
2017,05,27,10,25,18.20
2017,05,27,10,26,18.20
2017,05,27,10,27,18.30
2017,05,27,10,28,18.30
2017,05,27,10,29,18.30
2017,05,27,10,30,18.40
2017,05,27,10,31,18.40
2017,05,27,10,32,18.50
2017,05,27,10,33,18.60
2017,05,27,10,34,18.60
2017,05,27,10,35,18.50
2017,05,27,10,36,18.60
2017,05,27,10,37,18.60
2017,05,27,10,38,18.60
2017,05,27,10,39,18.70
2017,05,27,10,40,18.80
2017,05,27,10,41,18.80
2017,05,27,10,42,18.90
2017,05,27,10,43,18.90
2017,05,27,10,44,18.90
2017,05,27,10,45,18.80
2017,05,27,10,46,18.70
2017,05,27,10,47,18.70
2017,05,27,10,48,18.80
2017,05,27,10,49,18.90
2017,05,27,10,50,19.00
2017,05,27,10,51,19.10
2017,05,27,10,52,19.10
2017,05,27,10,53,19.10
2017,05,27,10,54,19.20
2017,05,27,10,55,19.20
2017,05,27,10,56,19.20
2017,05,27,10,57,19.20
2017,05,27,10,58,19.20
2017,05,27,10,59,19.20
2017,05,27,11,00,19.10
2017,05,27,11,01,19.10
2017,05,27,11,02,19.10
2017,05,27,11,03,19.10
2017,05,27,11,04,19.00
2017,05,27,11,05,18.90
2017,05,27,11,06,18.90
2017,05,27,11,07,18.90
2017,05,27,11,08,18.90
2017,05,27,11,09,18.90
2017,05,27,11,10,19.00
2017,05,27,11,11,19.10
2017,05,27,11,12,19.10
2017,05,27,11,13,19.20
2017,05,27,11,14,19.30
2017,05,27,11,15,19.30
2017,05,27,11,16,19.40
2017,05,27,11,17,19.40
2017,05,27,11,18,19.40
2017,05,27,11,19,19.40
2017,05,27,11,20,19.50
2017,05,27,11,21,19.60
2017,05,27,11,22,19.60
2017,05,27,11,23,19.70
2017,05,27,11,24,19.70
2017,05,27,11,25,19.60
2017,05,27,11,26,19.60
2017,05,27,11,27,19.70
2017,05,27,11,28,19.70
2017,05,27,11,29,19.80
2017,05,27,11,30,19.90
2017,05,27,11,31,20.00
2017,05,27,11,32,20.10
2017,05,27,11,33,20.20
2017,05,27,11,34,20.20
2017,05,27,11,35,20.20
2017,05,27,11,36,20.30
2017,05,27,11,37,20.40
2017,05,27,11,38,20.50
2017,05,27,11,39,20.60
2017,05,27,11,40,20.60
2017,05,27,11,41,20.60
2017,05,27,11,42,20.60
2017,05,27,11,43,20.60
2017,05,27,11,44,20.70
2017,05,27,11,45,20.80
2017,05,27,11,46,20.80
2017,05,27,11,47,20.90
2017,05,27,11,48,20.90
2017,05,27,11,49,20.90
2017,05,27,11,50,20.80
2017,05,27,11,51,20.80
2017,05,27,11,52,20.70
2017,05,27,11,53,20.70
2017,05,27,11,54,20.60
2017,05,27,11,55,20.60
2017,05,27,11,56,20.40
2017,05,27,11,57,20.30
2017,05,27,11,58,20.10
2017,05,27,11,59,20.00
2017,05,27,12,00,19.90
2017,05,27,12,01,20.00
2017,05,27,12,02,20.00
2017,05,27,12,03,19.90
2017,05,27,12,04,19.90
2017,05,27,12,05,19.90
2017,05,27,12,06,19.80
2017,05,27,12,07,19.70
2017,05,27,12,08,19.60
2017,05,27,12,09,19.40
2017,05,27,12,10,19.40
2017,05,27,12,11,19.20
2017,05,27,12,12,19.10
2017,05,27,12,13,19.10
2017,05,27,12,14,19.10
2017,05,27,12,15,19.20
2017,05,27,12,16,19.30
2017,05,27,12,17,19.40
2017,05,27,12,18,19.40
2017,05,27,12,19,19.50
2017,05,27,12,20,19.60
2017,05,27,12,21,19.70
2017,05,27,12,22,19.90
2017,05,27,12,23,20.00
2017,05,27,12,24,20.10
2017,05,27,12,25,20.10
2017,05,27,12,26,20.10
2017,05,27,12,27,20.10
2017,05,27,12,28,20.00
2017,05,27,12,29,19.90
2017,05,27,12,30,19.90
2017,05,27,12,31,19.90
2017,05,27,12,32,19.90
2017,05,27,12,33,19.90
2017,05,27,12,34,19.70
2017,05,27,12,35,19.70
2017,05,27,12,36,19.70
2017,05,27,12,37,19.80
2017,05,27,12,38,19.80
2017,05,27,12,39,19.90
2017,05,27,12,40,20.00
2017,05,27,12,41,20.10
2017,05,27,12,42,20.10
2017,05,27,12,43,20.10
2017,05,27,12,44,20.10
2017,05,27,12,45,20.10
2017,05,27,12,46,20.20
2017,05,27,12,47,20.20
2017,05,27,12,48,20.10
2017,05,27,12,49,20.10
2017,05,27,12,50,20.10
2017,05,27,12,51,20.20
2017,05,27,12,52,20.20
2017,05,27,12,53,20.30
2017,05,27,12,54,20.40
2017,05,27,12,55,20.40
2017,05,27,12,56,20.40
2017,05,27,12,57,20.50
2017,05,27,12,58,20.50
2017,05,27,12,59,20.50
2017,05,27,13,00,20.60
2017,05,27,13,01,20.70
2017,05,27,13,02,20.80
2017,05,27,13,03,20.80
2017,05,27,13,04,20.80
2017,05,27,13,05,20.70
2017,05,27,13,06,20.80
2017,05,27,13,07,20.80
2017,05,27,13,08,20.80
2017,05,27,13,09,20.80
2017,05,27,13,10,20.80
2017,05,27,13,11,20.80
2017,05,27,13,12,20.90
2017,05,27,13,13,21.00
2017,05,27,13,14,21.10
2017,05,27,13,15,21.10
2017,05,27,13,16,21.10
2017,05,27,13,17,21.20
2017,05,27,13,18,21.30
2017,05,27,13,19,21.40
2017,05,27,13,20,21.40
2017,05,27,13,21,21.40
2017,05,27,13,22,21.50
2017,05,27,13,23,21.60
2017,05,27,13,24,21.60
2017,05,27,13,25,21.60
2017,05,27,13,26,21.60
2017,05,27,13,27,21.70
2017,05,27,13,28,21.80
2017,05,27,13,29,21.90
2017,05,27,13,30,22.00
2017,05,27,13,31,22.20
2017,05,27,13,32,22.30
2017,05,27,13,33,22.50
2017,05,27,13,34,22.60
2017,05,27,13,35,22.70
2017,05,27,13,36,22.80
2017,05,27,13,37,22.80
2017,05,27,13,38,22.80
2017,05,27,13,39,22.80
2017,05,27,13,40,22.90
2017,05,27,13,41,22.90
2017,05,27,13,42,22.80
2017,05,27,13,43,22.70
2017,05,27,13,44,22.60
2017,05,27,13,45,22.60
2017,05,27,13,46,22.70
2017,05,27,13,47,22.60
2017,05,27,13,48,22.60
2017,05,27,13,49,22.70
2017,05,27,13,50,22.80
2017,05,27,13,51,22.90
2017,05,27,13,52,22.90
2017,05,27,13,53,22.80
2017,05,27,13,54,22.70
2017,05,27,13,55,22.60
2017,05,27,13,56,22.60
2017,05,27,13,57,22.60
2017,05,27,13,58,22.70
2017,05,27,13,59,22.70
2017,05,27,14,00,22.70
2017,05,27,14,01,22.70
2017,05,27,14,02,22.70
2017,05,27,14,03,22.60
2017,05,27,14,04,22.60
2017,05,27,14,05,22.50
2017,05,27,14,06,22.30
2017,05,27,14,07,22.20
2017,05,27,14,08,22.20
2017,05,27,14,09,22.10
2017,05,27,14,10,22.10
2017,05,27,14,11,22.10
2017,05,27,14,12,22.20
2017,05,27,14,13,22.20
2017,05,27,14,14,22.30
2017,05,27,14,15,22.30
2017,05,27,14,16,22.40
2017,05,27,14,17,22.40
2017,05,27,14,18,22.50
2017,05,27,14,19,22.60
2017,05,27,14,20,22.50
2017,05,27,14,21,22.60
2017,05,27,14,22,22.60
2017,05,27,14,23,22.70
2017,05,27,14,24,22.70
2017,05,27,14,25,22.70
2017,05,27,14,26,22.60
2017,05,27,14,27,22.60
2017,05,27,14,28,22.50
2017,05,27,14,29,22.50
2017,05,27,14,30,22.60
2017,05,27,14,31,22.60
2017,05,27,14,32,22.70
2017,05,27,14,33,22.80
2017,05,27,14,34,22.90
2017,05,27,14,35,23.00
2017,05,27,14,36,23.20
2017,05,27,14,37,23.30
2017,05,27,14,38,23.30
2017,05,27,14,39,23.30
2017,05,27,14,40,23.10
2017,05,27,14,41,23.00
2017,05,27,14,42,22.90
2017,05,27,14,43,23.00
2017,05,27,14,44,23.10
2017,05,27,14,45,23.20
2017,05,27,14,46,23.20
2017,05,27,14,47,23.30
2017,05,27,14,48,23.30
2017,05,27,14,49,23.30
2017,05,27,14,50,23.30
2017,05,27,14,51,23.30
2017,05,27,14,52,23.20
2017,05,27,14,53,23.10
2017,05,27,14,54,23.10
2017,05,27,14,55,23.10
2017,05,27,14,56,23.10
2017,05,27,14,57,23.10
2017,05,27,14,58,23.10
2017,05,27,14,59,23.10
2017,05,27,15,00,23.00
2017,05,27,15,01,22.90
2017,05,27,15,02,22.90
2017,05,27,15,03,23.00
2017,05,27,15,04,23.10
2017,05,27,15,05,23.20
2017,05,27,15,06,23.30
2017,05,27,15,07,23.30
2017,05,27,15,08,23.30
2017,05,27,15,09,23.30
2017,05,27,15,10,23.20
2017,05,27,15,11,23.20
2017,05,27,15,12,23.20
2017,05,27,15,13,23.20
2017,05,27,15,14,23.30
2017,05,27,15,15,23.30
2017,05,27,15,16,23.30
2017,05,27,15,17,23.30
2017,05,27,15,18,23.30
2017,05,27,15,19,23.30
2017,05,27,15,20,23.30
2017,05,27,15,21,23.40
2017,05,27,15,22,23.40
2017,05,27,15,23,23.40
2017,05,27,15,24,23.50
2017,05,27,15,25,23.60
2017,05,27,15,26,23.60
2017,05,27,15,27,23.50
2017,05,27,15,28,23.40
2017,05,27,15,29,23.30
2017,05,27,15,30,23.40
2017,05,27,15,31,23.40
2017,05,27,15,32,23.40
2017,05,27,15,33,23.50
2017,05,27,15,34,23.60
2017,05,27,15,35,23.60
2017,05,27,15,36,23.60
2017,05,27,15,37,23.60
2017,05,27,15,38,23.60
2017,05,27,15,39,23.70
2017,05,27,15,40,23.70
2017,05,27,15,41,23.70
2017,05,27,15,42,23.80
2017,05,27,15,43,23.90
2017,05,27,15,44,24.00
2017,05,27,15,45,24.10
2017,05,27,15,46,24.10
2017,05,27,15,47,24.10
2017,05,27,15,48,24.20
2017,05,27,15,49,24.30
2017,05,27,15,50,24.30
2017,05,27,15,51,24.30
2017,05,27,15,52,24.30
2017,05,27,15,53,24.30
2017,05,27,15,54,24.20
2017,05,27,15,55,24.20
2017,05,27,15,56,24.20
2017,05,27,15,57,24.10
2017,05,27,15,58,24.20
2017,05,27,15,59,24.30
2017,05,27,16,00,24.40
2017,05,27,16,01,24.50
2017,05,27,16,02,24.50
2017,05,27,16,03,24.60
2017,05,27,16,04,24.60
2017,05,27,16,05,24.60
2017,05,27,16,06,24.70
2017,05,27,16,07,24.80
2017,05,27,16,08,24.90
2017,05,27,16,09,25.00
2017,05,27,16,10,25.10
2017,05,27,16,11,25.10
2017,05,27,16,12,25.10
2017,05,27,16,13,25.20
2017,05,27,16,14,25.10
2017,05,27,16,15,25.10
2017,05,27,16,16,25.10
2017,05,27,16,17,25.00
2017,05,27,16,18,24.90
2017,05,27,16,19,24.90
2017,05,27,16,20,24.80
2017,05,27,16,21,24.80
2017,05,27,16,22,24.70
2017,05,27,16,23,24.60
2017,05,27,16,24,24.60
2017,05,27,16,25,24.50
2017,05,27,16,26,24.40
2017,05,27,16,27,24.40
2017,05,27,16,28,24.30
2017,05,27,16,29,24.40
2017,05,27,16,30,24.40
2017,05,27,16,31,24.50
2017,05,27,16,32,24.50
2017,05,27,16,33,24.60
2017,05,27,16,34,24.60
2017,05,27,16,35,24.60
2017,05,27,16,36,24.60
2017,05,27,16,37,24.50
2017,05,27,16,38,24.50
2017,05,27,16,39,24.50
2017,05,27,16,40,24.50
2017,05,27,16,41,24.60
2017,05,27,16,42,24.70
2017,05,27,16,43,24.70
2017,05,27,16,44,24.80
2017,05,27,16,45,24.80
2017,05,27,16,46,24.80
2017,05,27,16,47,24.80
2017,05,27,16,48,24.80
2017,05,27,16,49,24.80
2017,05,27,16,50,24.80
2017,05,27,16,51,24.70
2017,05,27,16,52,24.70
2017,05,27,16,53,24.60
2017,05,27,16,54,24.50
2017,05,27,16,55,24.50
2017,05,27,16,56,24.50
2017,05,27,16,57,24.50
2017,05,27,16,58,24.50
2017,05,27,16,59,24.50
2017,05,27,17,00,24.60
2017,05,27,17,01,24.60
2017,05,27,17,02,24.60
2017,05,27,17,03,24.70
2017,05,27,17,04,24.70
2017,05,27,17,05,24.70
2017,05,27,17,06,24.80
2017,05,27,17,07,24.80
2017,05,27,17,08,24.80
2017,05,27,17,09,24.80
2017,05,27,17,10,24.70
2017,05,27,17,11,24.60
2017,05,27,17,12,24.60
2017,05,27,17,13,24.60
2017,05,27,17,14,24.50
2017,05,27,17,15,24.50
2017,05,27,17,16,24.50
2017,05,27,17,17,24.50
2017,05,27,17,18,24.50
2017,05,27,17,19,24.60